WetterOnline ( https://www.wetteronline.de )

Wetter aktuell Bad Rappenau

Aktuelles Wetter: Waibstadt (237m)

6-stündlich | Neueste Meldungen
Ortszeit Temperatur Wetter
So, 22.05. 2:00 10.7° C wolkenlos
Sa, 21.05. 20:00 19.1° C wolkig
Sa, 21.05. 14:00 20.3° C wolkig
Sa, 21.05. 8:00 13.6° C wolkenlos
Sa, 21.05. 2:00 17.0° C bedeckt
Fr, 20.05. 20:00 24.2° C leichter Regen
Fr, 20.05. 14:00 27.8° C bedeckt
Fr, 20.05. 8:00 16.9° C bewölkt
Ortszeit Temperatur Wetter
So, 22.05. 7:00 10.8° C wolkig
So, 22.05. 6:40 10.3° C bedeckt
So, 22.05. 6:30 9.3° C bewölkt
So, 22.05. 6:20 9.3° C bewölkt
So, 22.05. 6:10 8.7° C bedeckt
So, 22.05. 6:00 8.5° C wolkig
So, 22.05. 5:50 8.5° C wolkig
So, 22.05. 5:30 8.0° C wolkig
So, 22.05. 5:00 8.3° C leicht bewölkt
So, 22.05. 4:30 8.6° C wolkenlos
So, 22.05. 4:00 9.2° C wolkenlos
Ortszeit Relative Feuchte Sichtweite
So, 22.05. 2:00 89% 50 km
Sa, 21.05. 20:00 54% 60 km
Sa, 21.05. 14:00 50% 45 km
Sa, 21.05. 8:00 74% 40 km
Sa, 21.05. 2:00 68% 45 km
Fr, 20.05. 20:00 57% 40 km
Fr, 20.05. 14:00 48% 50 km
Fr, 20.05. 8:00 88% 40 km
Ortszeit Relative Feuchte Sichtweite
So, 22.05. 7:00 85% 35 km
So, 22.05. 6:40 87% -
So, 22.05. 6:30 90% 35 km
So, 22.05. 6:20 90% -
So, 22.05. 6:10 93% -
So, 22.05. 6:00 95% 30 km
So, 22.05. 5:50 95% -
So, 22.05. 5:30 95% 24 km
So, 22.05. 5:00 95% 29 km
So, 22.05. 4:30 95% 28 km
So, 22.05. 4:00 93% 35 km
Ortszeit Niederschlagsmenge Niederschlagsart
So, 22.05. 2:00 0.0 l/m2 in 6 Std. -
Sa, 21.05. 20:00 0.1 l/m2 in 12 Std. -
Sa, 21.05. 14:00 0.1 l/m2 in 6 Std. Niederschlag
Sa, 21.05. 8:00 0.2 l/m2 in 12 Std. -
Sa, 21.05. 2:00 0.2 l/m2 in 6 Std. Regen
Fr, 20.05. 20:00 0.1 l/m2 in 12 Std. Regen
Fr, 20.05. 14:00 0.0 l/m2 in 6 Std. -
Fr, 20.05. 8:00 0.1 l/m2 in 12 Std. -
Ortszeit Niederschlagsmenge Niederschlagsart
So, 22.05. 7:00 0.0 l/m2 in 1 Std. -
So, 22.05. 6:40 keine Meldung -
So, 22.05. 6:30 0.0 l/m2 in 1 Std. -
So, 22.05. 6:20 keine Meldung -
So, 22.05. 6:10 keine Meldung -
So, 22.05. 6:00 0.0 l/m2 in 1 Std. -
So, 22.05. 5:50 keine Meldung -
So, 22.05. 5:30 0.0 l/m2 in 1 Std. -
So, 22.05. 5:00 0.0 l/m2 in 1 Std. -
So, 22.05. 4:30 0.0 l/m2 in 1 Std. -
So, 22.05. 4:00 0.0 l/m2 in 1 Std. -
Ortszeit Stärke Spitze Richtung
km/h Bft. km/h Grad Sektor
So, 22.05. 2:00 2 1 9 70° O
Sa, 21.05. 20:00 7 2 25 260° W
Sa, 21.05. 14:00 19 3 31 250° W
Sa, 21.05. 8:00 13 3 30 260° W
Sa, 21.05. 2:00 13 3 52 330° NW
Fr, 20.05. 20:00 18 3 32 250° W
Fr, 20.05. 14:00 13 3 33 250° W
Fr, 20.05. 8:00 7 2 14 90° O
Ortszeit Stärke Spitze Richtung
km/h Bft. km/h Grad Sektor
So, 22.05. 7:00 4 1 7 100° O
So, 22.05. 6:40 4 1 - 110° O
So, 22.05. 6:30 4 1 7 90° O
So, 22.05. 6:20 4 1 - 90° O
So, 22.05. 6:10 4 1 - 110° O
So, 22.05. 6:00 4 1 7 60° NO
So, 22.05. 5:50 4 1 - 60° NO
So, 22.05. 5:30 4 1 7 100° O
So, 22.05. 5:00 4 1 7 90° O
So, 22.05. 4:30 4 1 7 100° O
So, 22.05. 4:00 4 1 7 100° O
Ortszeit Untergrenze Bedeckung Gattung
total tief tief mittel hoch
So, 22.05. 2:00 - 0/8 0/8 - - -
Sa, 21.05. 20:00 5700 m 6/8 5/8 - - -
Sa, 21.05. 14:00 1290 m 5/8 5/8 - - -
Sa, 21.05. 8:00 - 0/8 0/8 - - -
Sa, 21.05. 2:00 810 m 8/8 8/8 - - -
Fr, 20.05. 20:00 2400 m 8/8 1/8 - - -
Fr, 20.05. 14:00 3300 m 8/8 8/8 - - -
Fr, 20.05. 8:00 3600 m 7/8 7/8 - - -
Ortszeit Bedeckungsgrad in Achtel und Wolkenuntergrenze
So, 22.05. 7:00 7(8100m) 8(9000m)
So, 22.05. 6:40 8
So, 22.05. 6:30 4(4200m) 8(8100m) 8(8700m)
So, 22.05. 6:20 4(4200m) 8(8100m) 8(8700m)
So, 22.05. 6:10 8
So, 22.05. 6:00 2(4200m) 8(7500m) 8(9000m)
So, 22.05. 5:50 2(4200m) 8(7500m) 8(9000m)
So, 22.05. 5:30 8(7500m)
So, 22.05. 5:00 5(7500m) 6(9000m)
So, 22.05. 4:30 keine Wolken
So, 22.05. 4:00 keine Wolken
Ortszeit Luftdruck NN (hPa) Tendenz (hPa in 3 Std.)
So, 22.05. 2:00 1020 - 0,5
Sa, 21.05. 20:00 1019 - 1,5
Sa, 21.05. 14:00 1022 - 1,2
Sa, 21.05. 8:00 1024 + 0,9
Sa, 21.05. 2:00 1021 + 2,4
Fr, 20.05. 20:00 1014 - 3,0
Fr, 20.05. 14:00 1016 - 3,0
Fr, 20.05. 8:00 1021 - 0,2
Ortszeit Luftdruck NN (hPa) Tendenz (hPa in 3 Std.)
So, 22.05. 7:00 1018 - 1,1
So, 22.05. 6:40 1018 keine Meldung
So, 22.05. 6:30 1019 - 0,7
So, 22.05. 6:20 1019 keine Meldung
So, 22.05. 6:10 1018 keine Meldung
So, 22.05. 6:00 1019 - 1,0
So, 22.05. 5:50 1019 keine Meldung
So, 22.05. 5:30 1019 - 1,1
So, 22.05. 5:00 1019 - 1,1
So, 22.05. 4:30 1019 - 0,9
So, 22.05. 4:00 1019 - 0,9
Ortszeit Schneehöhe (cm)
So, 22.05. 2:00 0
Sa, 21.05. 20:00 0
Sa, 21.05. 14:00 0
Sa, 21.05. 8:00 0
Sa, 21.05. 2:00 0
Fr, 20.05. 20:00 0
Fr, 20.05. 14:00 0
Fr, 20.05. 8:00 0
Ortszeit Schneehöhe (cm)
So, 22.05. 7:00 0
So, 22.05. 6:40 0
So, 22.05. 6:30 0
So, 22.05. 6:20 0
So, 22.05. 6:10 0
So, 22.05. 6:00 0
So, 22.05. 5:50 0
So, 22.05. 5:30 0
So, 22.05. 5:00 0
So, 22.05. 4:30 0
So, 22.05. 4:00 0
Link zu dieser Seite / Seite empfehlen

Das Wetter in ...